Weather History for KACV - February, 2013

Change the Weather History Date:

Monday, February 25, 2013

  Actual Average Record
Temperature  
Mean Temperature 44 °F -  
Max Temperature 51 °F 53 °F 59 °F (2001)
Min Temperature 34 °F 38 °F 30 °F (2011)
Degree Days  
Heating Degree Days 21    
Moisture  
Dew Point 39 °F    
Average Humidity 85    
Maximum Humidity 100    
Minimum Humidity 63    
Precipitation  
Precipitation 0.03 in - - ()
Sea Level Pressure  
Sea Level Pressure 30.38 in    
Wind  
Wind Speed 5 mph (NNE)    
Max Wind Speed 20 mph    
Max Gust Speed 26 mph    
Visibility 8 miles    
Events Rain    
Averages and records for this station are not official NWS values.
T = Trace of Precipitation, MM = Missing Value Source: NWS Daily Summary

Daily Weather History Graph

Daily Weather History Graph

Search for Another Location

Airport or City:

Trip Planner

Search our weather history database for the weather conditions in past years. The results will help you decide how hot, cold, wet, or windy it might be!

Date:

Astronomy

Feb. 25, 2013 Rise Set
Actual Time 6:56 AM PST 6:03 PM PST
Civil Twilight 6:28 AM PST 6:30 PM PST
Nautical Twilight 5:56 AM PST 7:02 PM PST
Astronomical Twilight 5:24 AM PST 7:34 PM PST
Moon 6:23 PM PST (2/25) 6:29 AM PST (2/25)
Length of Visible Light 12h 02m
Length of Day
11h 07m
Full, 100% of the Moon is Illuminated
Feb 25
Full
Feb 25
Full
Mar 4
Last Quarter
Mar 11
New
Mar 19
First Quarter

Hourly Weather History & Observations

Time (PST) Temp. Windchill Dew Point Humidity Pressure Visibility Wind Dir Wind Speed Gust Speed Precip Events Conditions
12:53 AM 39.9 °F 36.7 °F 37.9 °F 93% 30.35 in 10.0 mi ESE 4.6 mph - N/A   Partly Cloudy
1:30 AM 39.2 °F - 37.4 °F 93% 30.32 in 10.0 mi Calm Calm - N/A   Mostly Cloudy
1:53 AM 39.9 °F 36.7 °F 37.0 °F 89% 30.35 in 10.0 mi ESE 4.6 mph - N/A   Overcast
2:53 AM 42.1 °F 39.2 °F 37.0 °F 82% 30.33 in 10.0 mi SSE 4.6 mph - 0.00 in Rain Light Rain
3:51 AM 42.8 °F 40.1 °F 39.2 °F 87% 30.30 in 6.0 mi SE 4.6 mph - 0.01 in   Overcast
4:42 AM 41.0 °F 37.1 °F 39.2 °F 93% 30.31 in 2.5 mi SSE 5.8 mph - 0.01 in Rain Light Rain
4:53 AM 41.0 °F - 39.0 °F 93% 30.35 in 5.0 mi Calm Calm - 0.01 in   Overcast
5:18 AM 39.2 °F 35.9 °F 39.2 °F 100% 30.33 in 3.0 mi ESE 4.6 mph - 0.01 in Rain Light Rain
5:53 AM 41.0 °F 39.0 °F 39.0 °F 93% 30.36 in 10.0 mi ESE 3.5 mph - 0.01 in   Overcast
6:53 AM 41.0 °F - 39.9 °F 96% 30.38 in 10.0 mi Calm Calm - 0.01 in   Overcast
7:53 AM 42.1 °F - 41.0 °F 96% 30.40 in 9.0 mi Calm Calm - N/A   Overcast
8:07 AM 42.8 °F - 41.0 °F 93% 30.38 in 7.0 mi Calm Calm - N/A   Overcast
8:53 AM 44.1 °F - 43.0 °F 96% 30.42 in 5.0 mi Calm Calm - N/A   Overcast
9:05 AM 44.6 °F - 44.6 °F 100% 30.40 in 2.5 mi Calm Calm - N/A   Overcast
9:28 AM 46.4 °F 45.2 °F 42.8 °F 87% 30.39 in 6.0 mi North 3.5 mph - N/A   Mostly Cloudy
9:53 AM 46.9 °F - 43.0 °F 86% 30.42 in 9.0 mi North 5.8 mph - N/A   Mostly Cloudy
10:31 AM 50.0 °F - 42.8 °F 76% 30.39 in 10.0 mi NNW 8.1 mph - N/A   Mostly Cloudy
10:53 AM 48.0 °F - 41.0 °F 77% 30.41 in 10.0 mi NNW 12.7 mph - N/A   Scattered Clouds
11:53 AM 50.0 °F - 39.9 °F 68% 30.41 in 10.0 mi NNW 15.0 mph 20.7 mph N/A   Partly Cloudy
12:53 PM 50.0 °F - 41.0 °F 71% 30.41 in 10.0 mi NNW 16.1 mph - N/A   Clear
1:53 PM 51.1 °F - 39.0 °F 63% 30.38 in 10.0 mi NNW 16.1 mph - N/A   Clear
2:53 PM 50.0 °F - 39.9 °F 68% 30.39 in 10.0 mi NNW 19.6 mph 26.5 mph N/A   Clear
3:53 PM 48.9 °F - 41.0 °F 74% 30.37 in 10.0 mi NNW 15.0 mph - N/A   Clear
4:53 PM 48.0 °F - 37.0 °F 66% 30.38 in 10.0 mi North 12.7 mph - N/A   Clear
5:53 PM 46.0 °F 41.0 °F 37.9 °F 73% 30.37 in 10.0 mi North 10.4 mph 19.6 mph N/A   Clear
6:53 PM 43.0 °F 38.8 °F 37.0 °F 80% 30.38 in 10.0 mi North 6.9 mph - N/A   Clear
7:53 PM 43.0 °F 38.8 °F 37.9 °F 82% 30.40 in 9.0 mi North 6.9 mph - N/A   Clear
8:53 PM 42.1 °F 40.2 °F 37.0 °F 82% 30.40 in 10.0 mi NNE 3.5 mph - N/A   Clear
9:53 PM 39.9 °F 37.8 °F 36.0 °F 86% 30.42 in 10.0 mi Variable 3.5 mph - N/A   Clear
10:53 PM 37.0 °F - 34.0 °F 89% 30.41 in 10.0 mi Calm Calm - N/A   Clear
11:53 PM 34.0 °F - 33.1 °F 96% 30.41 in 10.0 mi Calm Calm - N/A   Clear